Regional Weather Roundup
Issued by NWS Green Bay, WI

Home | Current Version | Previous Version | Graphics & Text | Print | Product List | Glossary Off
Versions: 1 2 3 4 5 6 7 8 9 10 11 12 13 14 15 16 17 18 19 20 21 22 23 24 25 26 27 28 29 30 31 32 33 34 35 36 37 38 39 40 41 42 43 44 45 46 47 48 49 50

000
ASUS43 KGRB 210111
RWRGRB

NORTH-CENTRAL AND NORTHEAST WISCONSIN REGIONAL WEATHER ROUNDUP
NATIONAL WEATHER SERVICE GREEN BAY WI
800 PM CDT WED SEP 20 2017

WIZ005-009-010>012-018-019-210200-
NORTH CENTRAL WISCONSIN

CITY           SKY/WX    TMP DP  RH WIND       PRES   REMARKS
IRONWOOD       CLEAR     64  62  93 CALM      29.87R
MANITOWISH WTR PTCLDY    61  61 100 CALM      29.88R FOG
ARBOR VITAE    FOG       64  63  96 CALM      29.88R VSB<1/4
EAGLE RIVER    CLOUDY    67  67 100 CALM      29.90R FOG
LAND O LAKES   FOG       65  64  99 SE5       29.90R VSB<1/4
RHINELANDER    CLOUDY    68  68 100 N3        29.90R FOG
PHILLIPS       PTCLDY    63  62  96 CALM      29.86S
ANTIGO         CLOUDY    67  67 100 CALM      29.88R FOG
TOMAHAWK         N/A     64  62  94 CALM      29.89R FOG
MERRILL        NOT AVBL
$$

WIZ013-073-210200-
NORTHEAST WISCONSIN

CITY           SKY/WX    TMP DP  RH WIND       PRES   REMARKS
IRON MOUNTAIN  LGT RAIN  68  66  93 S5        29.87S FOG
MARINETTE      LGT RAIN  70  67  90 CALM      29.86R
OCONTO         CLOUDY    69  68  97 CALM      29.84R
$$

WIZ017-030-035>037-045-210200-
CENTRAL WISCONSIN

CITY           SKY/WX    TMP DP  RH WIND       PRES   REMARKS
MEDFORD        PTCLDY    63  61  92 CALM      29.88R
WAUSAU         CLOUDY    70  70 100 NW6       29.86R FOG
MOSINEE        MOCLDY    72  70  94 CALM      29.87R FOG
MARSHFIELD     CLOUDY    69  64  84 N5        29.87R
WISC RAPIDS    CLOUDY    70  69  97 CALM      29.85R
STEVENS POINT  CLOUDY    67  67 100 E3        29.85S
WAUPACA        HVY RAIN  71  69  93 SW8G26    29.87R
SHAWANO        CLOUDY    72  69  89 CALM      29.85R
CLINTONVILLE   NOT AVBL
WAUTOMA        TSTM      73  72  94 W26G35    29.84R
$$

WIZ038-039-048-051-210200-
FOX VALLEY

CITY           SKY/WX    TMP DP  RH WIND       PRES   REMARKS
NWS GREEN BAY  RAIN      72  72 100 S5        29.83R FOG
APPLETON       TSTM      73  72  94 W7        29.84R
OSHKOSH        CLOUDY    74  71  91 SE7G16    29.81S THUNDER
FOND DU LAC    TSTM      76  70  82 VRB3      29.82R
$$

WIZ022-050-052-210200-
EAST CENTRAL WISCONSIN

CITY           SKY/WX    TMP DP  RH WIND       PRES   REMARKS
EPHRAIM        MOCLDY    70  65  82 S9G16     29.85S
WASHINGTON ISL CLOUDY    69  64  82 S6        29.86S
STURGEON BAY   NOT AVBL
MANITOWOC      CLOUDY    71  67  87 SE9       29.84
SHEBOYGAN      CLOUDY    74  69  85 S8        29.82F
$$

LMZ563-521-522-541>543-210200-
LAKESHORE

STATION/POSITION TIME  TEMP    WIND        PRES    VSBY  WAVE
                       AIR SEA DIR/SP/G                  HT/PER
                 (UTC) (F)     (DEG/KT/KT) (MB)    (MI)  (FT/S)
SHEBOYGAN LKSHOR 0100   70     170/ 12/ 12 1009.7S
KEWAUNEE LKSHORE 0048   62     210/  2/  3 1009.7F
NORTHPORT PIER   0040   67     140/  8/ 11 1010.8R
N MID LAKE BUOY  0050   67 65  110/  6/  8 1012.0F         2/ 5
S GREEN BAY BUOY 0100   70 66  200/ 10/ 12 1010.3
SISTER BAY LKSHO 0019   72     150/ 14/ 19   N/A
MENOMINEE LKSHOR 0048   72     180/  5/  9 1010.5R
$$




USA.gov is the U.S. government's official web portal to all federal, state and local government web resources and services.